Weather in Rimgorskoye

Russia / Karachay-Cherkess Republic     43°57′26″N   42°31′32″E
temp.,
°C
wind,
m/s
gust,
m/s
humid.,
%
clouds,
%
prec.,
mm/h
press.,
hPa
HPBL,
m
10 may, mon
mon1000:00+2w8148992 0.2 10221128
03:00+1w814869 0.3 1024689
06:00+1w813816 0.0 1023915
09:00+5w912586 0.0 10221594
12:00+7wnw9115591 0.1 10201910
15:00+7wnw9115882 0.3 10191839
18:00+5wnw7108194 0.6 10201152
21:00+2w4109796 2.0 1022538
11 may, tue
tue1100:00+1wsw1193100 0.1 102067
03:00+1s2495100 0.1 1020205
06:00+2sse1283100 0.0 1019101
09:00+5ese3366100 0.0 1017547
12:00+7ese5558100 0.0 10151002
15:00+8e5466100 0.0 10151012
18:00+6ese577994 0.1 1017514
21:00+3s229224 0.1 101817
12 may, wed
wed1200:00+2s22869 0.0 101812
03:00+2ssw22811 0.0 101710
06:00+4s11768 0.0 101722
09:00+10e33645 0.0 1015610
12:00+14ene44595 0.0 10141013
15:00+14e666463 0.0 1015900
18:00+12e46810 0.0 1015365
21:00+8sse2292100 0.0 101623
13 may, thu
thu1300:00+8s22710 0.0 101412
03:00+8s22430 0.0 101411
06:00+10s2253100 0.0 101412
09:00+17ene225031 0.0 1013304
12:00+21ene33521 0.0 1013592
15:00+21e55585 0.0 1013706
18:00+18ese358041 0.0 1013295
21:00+13sse228720 0.0 101516
14 may, fri
fri1400:00+13ssw326130 0.0 101413
03:00+13ssw32530 0.0 101413
06:00+14ssw32580 0.0 101419
09:00+22ne21475 0.0 1013346
12:00+24ne32475 0.0 1013769
15:00+24ene44516 0.0 1013914
18:00+21e34765 0.0 1013138
21:00+16s228017 0.0 101412